Notices

What's New in latest Release from April 7th, 2021:

- Updated Glossary, including Speed of Maximum Gust, and Total Hourly Precipitation

- Updated national and regional climate services offices contacts and prices information

- Addition of station inventory lists for 1981-2010, 1971-2000, and 1961-1990 Normals.

If you haven't already, please take our survey and provide feedback about our website: https://eccc.sondage-survey.ca/f/LanguageSelection.aspx?s=442ca660-fcf1-47c0-95a9-59707d6fd709

Hourly Data Report for November 19, 2016

CARBERRY CS
MANITOBA

49°54'20.900" N
99°21'26.800" W
383.50 m
5010547
71170
WZE

Download Data

Hourly Data (November 2016)
Hourly Data Report for November 19, 2016
TIME
LST
Temp Definition
°C
Dew Point Definition
°C
Rel Hum Definition
%
Precip. Amount Definition
mm

Wind Dir Definition
10's deg

Wind Spd Definition
km/h
Visibility Definition
km
Stn Press Definition
kPa
Hmdx Definition


Wind Chill Definition


Weather Definition


00:00 -8.1 -12.0 74 0.0 29 13   98.32   -14 LegendNANA
01:00 -8.5 -11.8 77 0.0 29 13   98.31   -14 LegendNANA
02:00 -9.2 -12.0 80 0.0 29 12   98.36   -15 LegendNANA
03:00 -9.0 -12.0 79 0.0 29 12   98.37   -15 LegendNANA
04:00 -9.5 -12.3 80 0.0 29 12   98.35   -15 LegendNANA
05:00 -10.4 -12.6 84 0.0 27 9   98.40   -15 LegendNANA
06:00 -10.9 -13.1 84 0.0 27 7   98.40   -15 LegendNANA
07:00 -10.8 -13.0 84 0.0 25 6   98.40   -14 LegendNANA
08:00 -11.4 -13.4 85 0.0 24 6   98.42   -15 LegendNANA
09:00 -9.8 -12.8 79 0.0 26 3   98.41   -12 LegendNANA
10:00 -6.7 -11.0 71 0.0 26 8   98.47   -11 LegendNANA
11:00 -4.9 -11.8 58 0.0 25 12   98.47   -10 LegendNANA
12:00 -4.3 -12.0 55 0.0 26 8   98.39   -8 LegendNANA
13:00 -3.5 -11.8 52 0.0 21 5   98.30   -6 LegendNANA
14:00 -2.9 -12.0 50 0.0 23 4   98.30   -4 LegendNANA
15:00 -2.9 -11.7 51 0.0 23 7   98.27   -6 LegendNANA
16:00 -3.2 -11.2 54 0.0 25 6   98.26   -6 LegendNANA
17:00 -3.7 -10.9 57 0.0 21 4   98.23   -5 LegendNANA
18:00 -4.2 -10.0 64 0.0 13 4   98.19   -6 LegendNANA
19:00 -4.3 -9.5 67 0.0 11 8   98.14   -8 LegendNANA
20:00 -4.2 -9.7 66 0.0 10 7   98.18   -7 LegendNANA
21:00 -4.2 -9.7 66 0.0 11 8   98.10   -8 LegendNANA
22:00 -4.1 -10.1 63 0.0 10 11   97.96   -9 LegendNANA
23:00 -4.0 -10.0 63 0.0 10 9   98.02   -8 LegendNANA

Notes on Data Quality.

Legend

  • E = Estimated
  • M = Missing
  • NA = Not Available*
  • [empty] = Indicates an unobserved value
Date modified: